ALK110 VOBL-VOMM

Flight info

Callsign ALK110
Flight time 0h 30m
Altitude 19000
Route BIA W116 MMV
Aircraft A21N/M-SDE3FGHIRWY/LB1

Departure

Time 2026-04-20 12:49
Airport Kempegowda International Airport Bengaluru (VOBL)

Arrival

Time 2026-04-20 13:19
Airport Chennai International Airport (VOMM)
Time Latitude Longitude Altitude Speed Heading
2026-04-20 11:58 13.20187 77.71336 2960 ft 0 kts 184°
2026-04-20 12:31 13.20195 77.71336 2960 ft 2 kts 184°
2026-04-20 12:32 13.20198 77.71336 2960 ft 0 kts 184°
2026-04-20 12:32 13.20196 77.71336 2960 ft 3 kts 184°
2026-04-20 12:32 13.20223 77.71338 2958 ft 3 kts 184°
2026-04-20 12:32 13.20245 77.71346 2957 ft 3 kts 226°
2026-04-20 12:33 13.20252 77.71368 2956 ft 3 kts 275°
2026-04-20 12:33 13.20252 77.71371 2956 ft 0 kts 279°
2026-04-20 12:36 13.20252 77.71368 2956 ft 0 kts 274°
2026-04-20 12:37 13.20252 77.71367 2956 ft 0 kts 274°
2026-04-20 12:37 13.20252 77.71365 2956 ft 0 kts 274°
2026-04-20 12:37 13.20253 77.71363 2956 ft 0 kts 274°
2026-04-20 12:37 13.20253 77.71360 2956 ft 0 kts 268°
2026-04-20 12:38 13.20252 77.71355 2956 ft 1 kts 266°
2026-04-20 12:38 13.20251 77.71339 2956 ft 3 kts 266°
2026-04-20 12:38 13.20248 77.71310 2958 ft 4 kts 261°
2026-04-20 12:38 13.20243 77.71277 2959 ft 4 kts 261°
2026-04-20 12:39 13.20233 77.71189 2962 ft 8 kts 266°
2026-04-20 12:39 13.20233 77.71125 2964 ft 9 kts 272°
2026-04-20 12:39 13.20237 77.71050 2966 ft 11 kts 272°
2026-04-20 12:40 13.20239 77.70971 2968 ft 10 kts 272°
2026-04-20 12:40 13.20242 77.70899 2970 ft 9 kts 271°
2026-04-20 12:40 13.20243 77.70836 2973 ft 8 kts 271°
2026-04-20 12:40 13.20243 77.70782 2975 ft 6 kts 270°
2026-04-20 12:41 13.20242 77.70735 2976 ft 6 kts 269°
2026-04-20 12:41 13.20242 77.70685 2977 ft 7 kts 269°
2026-04-20 12:41 13.20242 77.70622 2979 ft 9 kts 270°
2026-04-20 12:41 13.20241 77.70546 2980 ft 11 kts 270°
2026-04-20 12:42 13.20242 77.70461 2982 ft 11 kts 270°
2026-04-20 12:42 13.20283 77.70400 2983 ft 11 kts 341°
2026-04-20 12:42 13.20365 77.70390 2984 ft 12 kts 360°
2026-04-20 12:42 13.20449 77.70391 2986 ft 12 kts
2026-04-20 12:43 13.20522 77.70365 2987 ft 11 kts 293°
2026-04-20 12:43 13.20530 77.70282 2989 ft 11 kts 270°
2026-04-20 12:43 13.20531 77.70193 2990 ft 13 kts 270°
2026-04-20 12:43 13.20531 77.70087 2991 ft 16 kts 270°
2026-04-20 12:44 13.20532 77.69960 2989 ft 18 kts 270°
2026-04-20 12:44 13.20532 77.69827 2989 ft 19 kts 270°
2026-04-20 12:44 13.20533 77.69690 2992 ft 18 kts 271°
2026-04-20 12:44 13.20534 77.69558 2994 ft 18 kts 270°
2026-04-20 12:45 13.20535 77.69430 2998 ft 16 kts 270°
2026-04-20 12:45 13.20535 77.69317 3002 ft 14 kts 270°
2026-04-20 12:45 13.20537 77.69213 3004 ft 14 kts 272°
2026-04-20 12:45 13.20539 77.69110 3006 ft 14 kts 271°
2026-04-20 12:46 13.20541 77.69002 3008 ft 16 kts 271°
2026-04-20 12:46 13.20540 77.68881 3009 ft 17 kts 270°
2026-04-20 12:46 13.20541 77.68754 3011 ft 18 kts 270°
2026-04-20 12:46 13.20563 77.68637 3011 ft 9 kts 313°
2026-04-20 12:47 13.20598 77.68619 3011 ft 0 kts 348°
2026-04-20 12:47 13.20599 77.68619 3011 ft 0 kts 348°
2026-04-20 12:48 13.20623 77.68615 3011 ft 8 kts 353°
2026-04-20 12:48 13.20702 77.68634 3012 ft 15 kts 49°
2026-04-20 12:48 13.20713 77.68705 3011 ft 8 kts 89°
2026-04-20 12:48 13.20713 77.68940 3011 ft 67 kts 91°
2026-04-20 12:49 13.20706 77.69637 2999 ft 129 kts 89°
2026-04-20 12:49 13.20697 77.70765 2970 ft 182 kts 90°
2026-04-20 12:49 13.20683 77.72149 3223 ft 204 kts 91°
2026-04-20 12:49 13.20801 77.73582 4064 ft 200 kts 73°
2026-04-20 12:50 13.21421 77.74786 4959 ft 194 kts 53°
2026-04-20 12:50 13.22317 77.75827 5590 ft 197 kts 51°
2026-04-20 12:50 13.23129 77.76981 5936 ft 207 kts 57°
2026-04-20 12:50 13.23934 77.78290 6219 ft 223 kts 59°
2026-04-20 12:51 13.24758 77.79700 6482 ft 241 kts 59°
2026-04-20 12:51 13.25644 77.81250 6753 ft 259 kts 60°
2026-04-20 12:51 13.26478 77.82946 7061 ft 275 kts 71°
2026-04-20 12:51 13.26865 77.84885 7582 ft 283 kts 86°
2026-04-20 12:52 13.26891 77.86913 8262 ft 285 kts 90°
2026-04-20 12:52 13.26854 77.88946 8904 ft 289 kts 90°
2026-04-20 12:52 13.26814 77.91022 9544 ft 292 kts 90°
2026-04-20 12:52 13.26782 77.93098 10176 ft 295 kts 89°
2026-04-20 12:53 13.26756 77.95219 10811 ft 299 kts 89°
2026-04-20 12:53 13.26733 77.97362 11441 ft 302 kts 89°
2026-04-20 12:53 13.26711 77.99534 12069 ft 306 kts 89°
2026-04-20 12:53 13.26690 78.01703 12690 ft 309 kts 89°
2026-04-20 12:54 13.26668 78.03909 13328 ft 312 kts 89°
2026-04-20 12:54 13.26646 78.06140 13965 ft 314 kts 89°
2026-04-20 12:54 13.26528 78.08420 14601 ft 317 kts 95°
2026-04-20 12:54 13.26141 78.10671 15164 ft 323 kts 102°
2026-04-20 12:55 13.25532 78.12926 15435 ft 338 kts 105°
2026-04-20 12:55 13.24828 78.15302 15696 ft 353 kts 105°
2026-04-20 12:55 13.24100 78.17731 16081 ft 362 kts 105°
2026-04-20 12:55 13.23359 78.20207 16662 ft 365 kts 105°
2026-04-20 12:56 13.22611 78.22720 17274 ft 367 kts 105°
2026-04-20 12:56 13.21870 78.25215 17855 ft 370 kts 105°
2026-04-20 12:56 13.21120 78.27747 18428 ft 373 kts 105°
2026-04-20 12:56 13.20369 78.30288 18812 ft 375 kts 105°
2026-04-20 12:57 13.19601 78.32887 18898 ft 375 kts 105°
2026-04-20 12:57 13.18845 78.35445 18901 ft 374 kts 105°
2026-04-20 12:57 13.18094 78.37987 18902 ft 374 kts 105°
2026-04-20 12:57 13.17340 78.40537 18903 ft 374 kts 105°
2026-04-20 12:58 13.16585 78.43089 18903 ft 374 kts 105°
2026-04-20 12:58 13.15826 78.45654 18903 ft 374 kts 105°
2026-04-20 12:58 13.15075 78.48193 18903 ft 374 kts 105°
2026-04-20 12:58 13.14313 78.50765 18903 ft 374 kts 105°
2026-04-20 12:59 13.13560 78.53309 18900 ft 374 kts 105°
2026-04-20 12:59 13.12810 78.55837 18893 ft 374 kts 105°
2026-04-20 12:59 13.12050 78.58403 18884 ft 374 kts 105°
2026-04-20 12:59 13.11301 78.60929 18874 ft 374 kts 105°
2026-04-20 13:00 13.10544 78.63480 18863 ft 374 kts 105°
2026-04-20 13:00 13.09784 78.66040 18853 ft 373 kts 105°
2026-04-20 13:00 13.09026 78.68594 18843 ft 373 kts 105°
2026-04-20 13:00 13.08271 78.71133 18835 ft 373 kts 105°
2026-04-20 13:01 13.07516 78.73673 18829 ft 373 kts 105°
2026-04-20 13:01 13.06770 78.76183 18827 ft 373 kts 105°
2026-04-20 13:01 13.06008 78.78745 18831 ft 372 kts 105°
2026-04-20 13:01 13.05258 78.81266 18840 ft 372 kts 105°
2026-04-20 13:02 13.04504 78.83802 18852 ft 372 kts 105°
2026-04-20 13:02 13.03748 78.86341 18865 ft 372 kts 105°
2026-04-20 13:02 13.02991 78.88881 18880 ft 372 kts 105°
2026-04-20 13:02 13.02240 78.91402 18894 ft 371 kts 105°
2026-04-20 13:03 13.01487 78.93929 18908 ft 371 kts 105°
2026-04-20 13:03 13.00726 78.96482 18897 ft 372 kts 105°
2026-04-20 13:03 12.99980 78.98982 18656 ft 370 kts 105°
2026-04-20 13:03 12.99231 79.01495 18406 ft 369 kts 105°
2026-04-20 13:04 12.98483 79.03999 18156 ft 368 kts 105°
2026-04-20 13:04 12.97734 79.06507 17904 ft 367 kts 105°
2026-04-20 13:04 12.96983 79.09023 17649 ft 367 kts 105°
2026-04-20 13:04 12.96242 79.11517 17374 ft 366 kts 105°
2026-04-20 13:05 12.95514 79.13990 16994 ft 365 kts 105°
2026-04-20 13:05 12.94783 79.16476 16555 ft 363 kts 105°
2026-04-20 13:05 12.94062 79.18927 16100 ft 361 kts 105°
2026-04-20 13:05 12.93336 79.21392 15633 ft 360 kts 105°
2026-04-20 13:06 12.92610 79.23855 15155 ft 359 kts 105°
2026-04-20 13:06 12.91881 79.26327 14343 ft 366 kts 105°
2026-04-20 13:06 12.91141 79.28837 13515 ft 369 kts 105°
2026-04-20 13:06 12.90409 79.31316 12754 ft 369 kts 105°
2026-04-20 13:07 12.89657 79.33861 12016 ft 368 kts 106°
2026-04-20 13:07 12.88922 79.36343 11300 ft 362 kts 106°
2026-04-20 13:07 12.88200 79.38774 10575 ft 353 kts 105°
2026-04-20 13:07 12.87503 79.41125 9857 ft 342 kts 105°
2026-04-20 13:08 12.86823 79.43425 9126 ft 331 kts 105°
2026-04-20 13:08 12.86163 79.45657 8307 ft 325 kts 105°
2026-04-20 13:08 12.85522 79.47823 7489 ft 319 kts 105°
2026-04-20 13:08 12.84884 79.49982 6658 ft 313 kts 106°
2026-04-20 13:09 12.84254 79.52091 5832 ft 308 kts 106°
2026-04-20 13:09 12.83635 79.54147 5013 ft 304 kts 107°
2026-04-20 13:09 12.83022 79.56184 4189 ft 299 kts 107°
2026-04-20 13:09 12.82410 79.58213 3357 ft 295 kts 107°
2026-04-20 13:10 12.81812 79.60198 2584 ft 290 kts 107°
2026-04-20 13:10 12.81231 79.62125 2122 ft 274 kts 108°
2026-04-20 13:10 12.80689 79.63919 1983 ft 258 kts 108°
2026-04-20 13:10 12.80156 79.65681 1970 ft 260 kts 108°
2026-04-20 13:11 12.79619 79.67458 1975 ft 259 kts 108°
2026-04-20 13:11 12.79090 79.69209 1977 ft 259 kts 108°
2026-04-20 13:11 12.78817 79.71040 1964 ft 261 kts 86°
2026-04-20 13:11 12.79351 79.72816 1967 ft 263 kts 62°
2026-04-20 13:12 12.80339 79.74382 1966 ft 264 kts 57°
2026-04-20 13:12 12.81394 79.75940 1954 ft 263 kts 57°
2026-04-20 13:12 12.82431 79.77480 1942 ft 263 kts 57°
2026-04-20 13:12 12.83462 79.79032 1930 ft 263 kts 58°
2026-04-20 13:13 12.84478 79.80577 1918 ft 262 kts 58°
2026-04-20 13:13 12.85487 79.82117 1906 ft 262 kts 58°
2026-04-20 13:13 12.86429 79.83727 1893 ft 261 kts 64°
2026-04-20 13:13 12.87177 79.85403 1882 ft 259 kts 70°
2026-04-20 13:14 12.87835 79.87130 1865 ft 258 kts 71°
2026-04-20 13:14 12.88470 79.88839 1848 ft 258 kts 71°
2026-04-20 13:14 12.89116 79.90575 1836 ft 258 kts 71°
2026-04-20 13:14 12.89760 79.92294 1828 ft 258 kts 71°
2026-04-20 13:15 12.90404 79.94009 1821 ft 255 kts 71°
2026-04-20 13:15 12.91028 79.95662 1814 ft 239 kts 71°
2026-04-20 13:15 12.91607 79.97193 1812 ft 229 kts 71°
2026-04-20 13:15 12.92181 79.98720 1815 ft 229 kts 71°
2026-04-20 13:16 12.92755 80.00247 1816 ft 229 kts 71°
2026-04-20 13:16 12.93332 80.01782 1816 ft 229 kts 71°
2026-04-20 13:16 12.93910 80.03319 1816 ft 229 kts 71°
2026-04-20 13:16 12.94480 80.04834 1813 ft 225 kts 71°
2026-04-20 13:17 12.95030 80.06289 1811 ft 213 kts 71°
2026-04-20 13:17 12.95551 80.07657 1889 ft 194 kts 71°
2026-04-20 13:17 12.96013 80.08865 1817 ft 172 kts 71°
2026-04-20 13:17 12.96448 80.10035 1255 ft 176 kts 72°
2026-04-20 13:18 12.96864 80.11189 842 ft 169 kts 73°
2026-04-20 13:18 12.97261 80.12278 545 ft 156 kts 72°
2026-04-20 13:18 12.97660 80.13256 302 ft 143 kts 71°
2026-04-20 13:18 12.98019 80.14199 240 ft 143 kts 73°
2026-04-20 13:19 12.98371 80.15166 135 ft 143 kts 73°
2026-04-20 13:19 12.98722 80.16116 42 ft 137 kts 74°
2026-04-20 13:19 12.99000 80.16795 45 ft 75 kts 69°
2026-04-20 13:19 12.99129 80.17212 46 ft 43 kts 72°
2026-04-20 13:20 12.99230 80.17476 44 ft 37 kts 70°
2026-04-20 13:20 12.99235 80.17658 47 ft 16 kts 174°
2026-04-20 13:20 12.99141 80.17690 49 ft 13 kts 168°
2026-04-20 13:20 12.99070 80.17728 51 ft 10 kts 138°